Hourly Data Report for October 15, 2013

All times are specified in Local Standard Time (LST). Add 1 hour to adjust for Daylight Saving Time where and when it is observed.

FORT LIARD
NORTHWEST TERRITORIES

60°14'00.000" N
123°28'00.000" W
213.40 m
2201579
71497
WJL

Download Data

Hourly Data (October 2013)
Hourly Data Report for October 15, 2013
Temp Definition
°C
Dew Point Temp Definition
°C
Rel Hum Definition
%
Wind Dir Definition
10's deg

Wind Spd Definition
km/h
Visibility Definition
km
Stn Press Definition
kPa
Hmdx Definition


Wind Chill Definition


Weather Definition


TIME
00:00 7.4 4.9 84 21 9   98.58     LegendNANA
01:00 9.9 4.6 70 24 13   98.59     LegendNANA
02:00 10.3 2.1 57 26 9   98.74     LegendNANA
03:00 10.1 1.1 54 25 15   98.78     LegendNANA
04:00 9.9 0.9 53 25 22   98.82     LegendNANA
05:00 9.5 0.4 53 23 20   98.95     LegendNANA
06:00 9.1 0.0 53 25 13   99.07     LegendNANA
07:00 8.8 -1.1 50 25 11   99.15     LegendNANA
08:00 7.3 -0.7 57 23 15   99.27     LegendNANA
09:00 8.7 -1.4 49 25 11   99.32     LegendNANA
10:00 10.0 0.3 51 2 11   99.45     LegendNANA
11:00 9.8 2.4 60 6 9   99.51     LegendNANA
12:00 9.8 2.1 59 5 2   99.51     LegendNANA
13:00 10.7 2.2 56 31 2   99.50     LegendNANA
14:00 11.5 -2.2 38 24 9   99.48     LegendNANA
15:00 12.6 -2.6 35 23 15   99.48     LegendNANA
16:00 12.4 -3.4 33 20 13   99.50     LegendNANA
17:00 12.2 -3.4 33 24 15   99.49     LegendNANA
18:00 10.7 -3.0 38 26 13   99.44     LegendNANA
19:00 9.8 -2.3 43 24 15   99.46     LegendNANA
20:00 8.2 -1.9 49 22 17   99.44     LegendNANA
21:00 9.2 -2.2 45 26 17   99.44     LegendNANA
22:00 8.4 -2.2 47 24 13   99.45     LegendNANA
23:00 4.1 -1.8 65 20 2   99.49     LegendNANA

Notes on Data Quality.

Legend

  • E = Estimated
  • M = Missing
  • NA = Not Available
  • ‡ = Partner data that is not subject to review by the National Climate Archives
Date modified: